If you wish to contribute or participate in the discussions about articles you are invited to join SKYbrary as a registered user

 Actions

Tarbes-Lourdes-Pyrénées Airport

From SKYbrary Wiki

LFBT
Airport
ICAO: LFBT – IATA: LDE
Summary
Name Tarbes-Lourdes-Pyrénées Airport
Region Europe
Territory France FR.gif
Location Ossun, Midi-Pyrenees
Serving Tarbes
Elevation 383.743 m
1,259 ft
1,259 ft383.743 m
Coordinates 43° 10' 56.78" N, 0° 0' 14.63" W
Runways
Designator Length Width Surface ROPS
2/20 3000 m9,842.52 ft
45 m147.638 ft
ASP yes/yes


METAR
Observation LFBT 030300Z AUTO VRB02KT 9999 SCT045 BKN130 15/14 Q1019 NOSIG
Station Tarbes Ossun Lourdes
Date/Time 03 August 2020 03:00:00
Wind direction °
Wind speed 02 kts
Lowest cloud amount scattered clouds
Temperature 15°C
Dew point 14°C
Humidity 93%
QNH 1019 hPa
Weather condition n/a

WX
Tag(s) Fog
Low Level Turbulence

Tarbes Airport

ICAO: LFBT IATA: LDE

Description

International airport serving Tarbes.

Climatology

Temperate Marine climate/Oceanic climate (Köppen climate classification Cfb). Moderately cool summer and comparatively warm winter. Prevailing south-westerly winds from the Atlantic Ocean.

Maps

Terrain

Loading map...

Airport Layout

Loading map...


Accidents & Serious Incidents at or in vicinity of LFBT

None on SKYbrary